AG1T-1 Weather Reports


time (UTC)temp
C
wind
direction
speed
KPH
gust
KPH
rain 1hr
cm
rain 24hr
cm
rain mn
cm
humidity
%
barometer
mb
20260505084003 14 138 3.2 11.3 0.00 0.00 0.00 55 1011.1
20260505083003 14 136 4.8 12.9 0.00 0.00 0.00 55 1011.1
20260505082003 14 145 4.8 14.5 0.00 0.00 0.00 54 1011.2
20260505081003 14 152 4.8 14.5 0.00 0.00 0.00 53 1011.2
20260505080003 15 139 4.8 12.9 0.00 0.00 0.00 55 1011.4
20260505075003 15 131 4.8 12.9 0.00 0.00 0.00 53 1011.5
20260505074003 15 127 4.8 12.9 0.00 0.00 0.00 52 1011.5
20260505073003 15 120 6.4 19.3 0.00 0.00 0.00 51 1011.4
20260505072003 15 135 6.4 19.3 0.00 0.00 0.00 53 1011.4
20260505071003 15 172 6.4 17.7 0.00 0.00 0.00 52 1011.3
20260505070003 15 191 4.8 16.1 0.00 0.00 0.00 53 1011.2
20260505065003 15 205 4.8 16.1 0.00 0.00 0.00 54 1011.1
20260505064003 15 190 3.2 14.5 0.00 0.00 0.00 56 1011.1
20260505063003 15 148 1.6 6.4 0.00 0.00 0.00 55 1011.2
20260505062003 15 145 3.2 11.3 0.00 0.00 0.00 53 1011.2
20260505061003 15 139 4.8 12.9 0.00 0.00 0.00 51 1011.2
20260505060003 13 113 4.8 12.9 0.00 0.00 0.00 53 1011.1
20260505055003 13 124 3.2 11.3 0.00 0.00 0.00 54 1011.1
20260505054003 13 214 1.6 9.7 0.00 0.00 0.00 55 1011.0
20260505053003 12 196 3.2 9.7 0.00 0.00 0.00 55 1010.7
20260505052003 12 161 3.2 11.3 0.00 0.00 0.00 56 1010.5
20260505051003 12 156 4.8 12.9 0.00 0.00 0.00 56 1010.4
20260505041003 13 138 1.6 6.4 0.00 0.00 0.00 51 1010.1
20260505040004 14 138 1.6 4.8 0.00 0.00 0.00 50 1010.1
20260505035003 14 138 3.2 8.0 0.00 0.00 0.00 48 1010.0
20260505034003 15 139 1.6 8.0 0.00 0.00 0.00 47 1010.0
20260505033003 15 149 1.6 6.4 0.00 0.00 0.00 46 1009.9
20260505032003 16 137 1.6 6.4 0.00 0.00 0.00 43 1009.6
20260505031003 15 132 4.8 8.0 0.00 0.00 0.00 43 1009.5
20260505030003 15 138 4.8 14.5 0.00 0.00 0.00 44 1009.4
20260505025003 16 145 3.2 11.3 0.00 0.00 0.00 44 1009.3
20260505024003 16 146 3.2 8.0 0.00 0.00 0.00 41 1009.2
20260505023003 16 155 1.6 6.4 0.00 0.00 0.00 42 1009.1
20260505022003 17 0 0.0 4.8 0.00 0.00 0.00 40 1009.1
20260505021003 17 124 1.6 6.4 0.00 0.00 0.00 37 1008.9
20260505020003 17 33 1.6 8.0 0.00 0.00 0.00 37 1008.9
20260505015003 18 0 0.0 3.2 0.00 0.00 0.00 37 1008.8
20260505014003 18 0 0.0 0.0 0.00 0.00 0.00 37 1009.0
20260505013003 18 0 0.0 4.8 0.00 0.00 0.00 38 1008.9
20260505012003 18 0 0.0 4.8 0.00 0.00 0.00 37 1008.9
20260505011003 18 0 0.0 0.0 0.00 0.00 0.00 37 1009.1
20260505010003 18 0 0.0 0.0 0.00 0.00 0.00 37 1009.1
20260505005004 18 0 0.0 3.2 0.00 0.00 0.00 36 1009.3
20260505004003 18 292 1.6 8.0 0.00 0.00 0.00 36 1009.6
20260505003003 19 319 3.2 9.7 0.00 0.00 0.00 33 1009.7
20260505002003 20 320 3.2 9.7 0.00 0.00 0.00 33 1009.8
20260505001003 20 332 3.2 11.3 0.00 0.00 0.00 30 1009.9
20260505000003 21 339 4.8 12.9 0.00 0.00 0.00 29 1009.7
20260504235003 21 336 4.8 19.3 0.00 0.00 0.00 29 1009.7
20260504234003 22 335 6.4 20.9 0.00 0.00 0.00 29 1009.5
20260504233003 23 334 9.7 22.5 0.00 0.00 0.00 27 1009.4
20260504232003 25 339 8.0 20.9 0.00 0.00 0.00 25 1009.5
20260504231003 25 311 1.6 9.7 0.00 0.00 0.00 20 1009.2
20260504230003 25 247 1.6 8.0 0.00 0.00 0.00 20 1009.2
20260504225003 25 0 0.0 3.2 0.00 0.00 0.00 20 1009.3
20260504224003 24 305 4.8 9.7 0.00 0.00 0.00 20 1009.3
20260504223003 24 278 1.6 9.7 0.00 0.00 0.00 22 1009.1
20260504222003 24 253 1.6 8.0 0.00 0.00 0.00 22 1009.2
20260504221003 24 259 1.6 8.0 0.00 0.00 0.00 22 1009.3
20260504220003 23 251 1.6 11.3 0.00 0.00 0.00 21 1009.4
20260504215003 23 212 1.6 11.3 0.00 0.00 0.00 21 1009.7
20260504214003 23 174 3.2 9.7 0.00 0.00 0.00 20 1009.9
20260504213003 24 149 1.6 8.0 0.00 0.00 0.00 22 1010.0
20260504212003 23 205 1.6 6.4 0.00 0.00 0.00 27 1010.1
20260504211003 23 259 3.2 11.3 0.00 0.00 0.00 26 1010.3
20260504210003 23 259 3.2 8.0 0.00 0.00 0.00 28 1010.4
20260504205003 23 286 3.2 11.3 0.00 0.00 0.00 26 1010.6
20260504204003 23 265 3.2 8.0 0.00 0.00 0.00 28 1010.6
20260504203003 23 306 3.2 14.5 0.00 0.00 0.00 28 1010.7
20260504202003 23 311 6.4 14.5 0.00 0.00 0.00 28 1010.9
20260504201003 23 312 3.2 14.5 0.00 0.00 0.00 30 1010.9
20260504200003 23 23 1.6 8.0 0.00 0.00 0.00 29 1011.1
20260504195003 23 57 1.6 4.8 0.00 0.00 0.00 30 1011.2
20260504194003 23 0 0.0 6.4 0.00 0.00 0.00 27 1011.3
20260504193003 23 341 1.6 6.4 0.00 0.00 0.00 29 1011.4
20260504192003 23 52 1.6 6.4 0.00 0.00 0.00 27 1011.6
20260504191003 23 8 1.6 12.9 0.00 0.00 0.00 28 1011.7
20260504190003 23 0 0.0 8.0 0.00 0.00 0.00 30 1011.9
20260504185003 22 325 1.6 8.0 0.00 0.00 0.00 30 1012.1
20260504184003 22 6 1.6 9.7 0.00 0.00 0.00 33 1012.3
20260504183003 22 320 1.6 4.8 0.00 0.00 0.00 36 1012.4
20260504182003 21 318 1.6 8.0 0.00 0.00 0.00 37 1012.6
20260504181003 20 0 0.0 4.8 0.00 0.00 0.00 40 1012.8
20260504180003 20 318 3.2 8.0 0.00 0.00 0.00 36 1012.9
20260504175003 20 0 0.0 3.2 0.00 0.00 0.00 38 1013.1
20260504174003 20 0 0.0 4.8 0.00 0.00 0.00 41 1013.1
20260504173003 19 0 0.0 4.8 0.00 0.00 0.00 40 1013.2
20260504172003 18 310 1.6 6.4 0.00 0.00 0.00 40 1013.3
20260504171003 17 310 1.6 9.7 0.00 0.00 0.00 42 1013.3
20260504151003 12 325 1.6 4.8 0.00 0.00 0.00 52 1013.7
20260504141003 8 0 0.0 0.0 0.00 0.00 0.00 67 1014.1